This demonstration page uses our WeatherBlox Daily Observations layout. Learn more.

Left ArrowRight Arrow

36.17497, -115.13722

Hourly Observations for October 4, 2016

Temp ( °F °C ) Dew Point ( °F °C ) Humidity (%) Winds ( mph kmh ) Pressure ( in mb ) Visibility ( mi km ) Precip ( " mm )
12:53 am 00:53 Clear 63 17.2 16 -8.9 16 16 Calm 29.86 1011 10 16.0934 0 0
1:53 am 01:53 Clear 63 17.2 16 -8.9 16 16 W 5 7 29.86 1011 10 16.0934 0 0
2:53 am 02:53 Clear 64 17.8 16 -8.9 15 15 NNW 15 24 29.85 1011 10 16.0934 0 0
3:53 am 03:53 Clear 63 17.2 16 -8.9 16 16 N 14 22 29.84 1011 10 16.0934 0 0
4:53 am 04:53 Clear 59 15 18 -7.8 20 20 WNW 7 11 29.85 1011 10 16.0934 0 0
5:53 am 05:53 Clear 59 15 20 -6.7 22 22 N 6 9 29.87 1011 10 16.0934 0 0
6:53 am 06:53 Sunny 60 15.6 17 -8.3 19 19 NW 6 9 29.88 1012 10 16.0934 0 0
7:53 am 07:53 Sunny 64 17.8 19 -7.2 18 18 N 8 13 29.9 1012 10 16.0934 0 0
8:53 am 08:53 Sunny 65 18.3 20 -6.7 18 18 NE 9 15 29.91 1013 10 16.0934 0 0
9:53 am 09:53 Sunny 68 20 17 -8.3 14 14 SE 6 9 29.91 1013 10 16.0934 0 0
10:53 am 10:53 Sunny 71 21.7 19 -7.2 14 14 SE 7 11 29.89 1012 10 16.0934 0 0
11:53 am 11:53 Sunny 73 22.8 18 -7.8 12 12 VRB 3 6 29.88 1012 10 16.0934 0 0
12:53 pm 12:53 Sunny 75 23.9 21 -6.1 13 13 VRB 5 7 29.85 1011 10 16.0934 0 0
1:53 pm 13:53 Sunny 77 25 23 -5 13 13 SE 8 13 29.81 1010 10 16.0934 0 0
2:53 pm 14:53 Sunny 79 26.1 23 -5 12 12 E 10 17 29.78 1009 10 16.0934 0 0
3:53 pm 15:53 Sunny 79 26.1 23 -5 12 12 SSE 7 11 29.76 1008 10 16.0934 0 0
4:53 pm 16:53 Sunny 79 26.1 22 -5.6 12 12 S 7 11 29.76 1008 10 16.0934 0 0
5:53 pm 17:53 Sunny 78 25.6 22 -5.6 12 12 ENE 8 13 29.76 1008 10 16.0934 0 0
6:53 pm 18:53 Clear 76 24.4 22 -5.6 13 13 ENE 6 9 29.76 1008 10 16.0934 0 0
7:53 pm 19:53 Clear 73 22.8 20 -6.7 13 13 E 8 13 29.78 1008 10 16.0934 0 0
8:53 pm 20:53 Clear 71 21.7 21 -6.1 15 15 NE 5 7 29.79 1009 10 16.0934 0 0
9:53 pm 21:53 Clear 68 20 24 -4.4 19 19 N 6 9 29.8 1009 10 16.0934 0 0
10:53 pm 22:53 Clear 65 18.3 25 -3.9 22 22 N 5 7 29.81 1010 10 16.0934 0 0
11:53 pm 23:53 Clear 64 17.8 24 -4.4 22 22 NNW 9 15 29.81 1009 10 16.0934 0 0

Powered by AerisWeather